Showing default

LEMUR 2 OBA-NI-JESU, 58902

Orbit data source: Space-Track

LEMUR 2 OBA-NI-JESU, 58902 is an American payload satellite in SSO that was launched on Wed, 31 Jan 2024 UTC via an ELECTRON launch vehicle from the Rocket Lab Launch Complex (RLLC). Payload-class satellites include a variety of spacecraft equipped with specific instruments for various scientific and technological missions. These include communications satellites like Starlink; space stations such as the ISS; scientific satellites like the Hubble; Earth observation satellites from companies like Planet Labs, Umbra, and HawkEye 360; GPS; miniature CubeSats for education and research; and military/defense satellites.

Loading next visibility...
Identifier
58902, 2024-022D
Orbit
SSO
Last TLE update
16 hours ago
Origin
Manufacturer
Spire/Glasgow
Mission
Operational Commercial Early Warn
Bus & Motor
CUBESAT 3U, Unknown motor
Mass
~25 kg wet, ~25 kg dry
Launch date (UTC)
2024-01-31 (1 year ago)
Launch vehicle
ELECTRON
Launch site
Rocket Lab Launch Complex (RLLC)
Object type
Payload
Rocket body
Debris
Shape & HBR
Box + 2 Pan, 1 m
Radar Cross Section
0.146 m², Medium (>0.1 m² and < 1m²)

Expand to show TLE details & history

TLE from 16 hours ago
0 LEMUR 2 OBA-NI-JESU
1 58902U 24022D   25128.55284595  .00025563  00000-0  73588-3 0  9990
2 58902  97.4478 334.0281 0009953  97.3190 262.9185 15.35702693 70440
Epoch: 2025-05-08T13:16Z
Definitive object data (Epoch: 2025-05-08T13:16:05.89Z)
Latitude
-0.00001°
Longitude
-91.61814°
Altitude
462.79 km
Speed
7.635 km/s
True Right ascension
22h 16m 06s
True Declination
0° 00' 00"
Sunlit
Object was in daylight at TLE epoch
Visualization TLE readout
Latitude
69.32302°
Longitude
109.20936°
Altitude
464.149 km
Speed
7.645 km/s
Apparent Right ascension
03h 01m 07s
Apparent Declination
37° 42' 36"
Sunlit
Object is in daylight
Visualization observer readout
Local Sidereal Time
13:31:29
Azimuth
342.185° N
Elevation
-9.699°
Doppler factor
1
Orbital elements
Apogee altitude
462.583 km
Perigee altitude
448.979 km
Semi-major axis
6,833.918 km
Eccentricity
0.0009953
Inclination
97.4478°
RAAN
334.0281°
Arg. of periapsis
97.319°
True anomaly
262.80533°
Mean anomaly
262.9185°
Eccentric anomaly
262.86192°
Mean motion
3.84183 °/min
BSTAR
0.00073588
Orbital period
93.71 mins
Loading maneuver chart data...
Loading SW <> Apogee altitude chart data...
Loading historical data...
Loading historical data...
Loading historical data...
Loading historical data...
Loading historical data...
Loading historical data...
Loading historical data...

LEMUR 2 OBA-NI-JESU Visibility forecast

Observer location: undefined°, undefined°

Span
Click to sort rows by Start time (UTC) header in descending order
Start Az.
Max El. time (UTC)
Max El. Az.
Max El.
End time (UTC)
End Az.
4 mins2025-05-09 12:52:49.721Z107.11° ESE2025-05-09 12:54:49.721Z66.196° ENE17.198°2025-05-09 12:56:49.721Z27.785° NE
4 mins2025-05-09 14:25:49.721Z225.624° WSW2025-05-09 14:27:49.721Z274.052° WNW20.236°2025-05-09 14:29:49.721Z313.327° NW
|